Time,TemperatureF,DewpointF,PressureIn,WindDirection,WindDirectionDegrees,WindSpeedMPH,WindSpeedGustMPH,Humidity,HourlyPrecipIn,Conditions,Clouds,dailyrainin,SolarRadiationWatts/m^2,SoftwareType,DateUTC
2013-09-07 00:01:00,71.7,68.0,30.07,NNE,25,0.3,1.1,88,0.00,CLR,OVC,0.02,0.0,WeatherDisplay:10.37,2013-09-07 04:01:00,
2013-09-07 00:06:00,71.6,67.9,30.07,North,5,1.5,3.0,88,0.00,RA,OVC,0.00,0.0,WeatherDisplay:10.37,2013-09-07 04:06:00,
2013-09-07 00:11:00,71.4,67.7,30.07,North,5,0.0,0.0,88,0.00,RA,OVC,0.00,0.0,WeatherDisplay:10.37,2013-09-07 04:11:00,
2013-09-07 00:16:00,71.3,67.9,30.08,NE,47,0.0,0.0,89,0.00,CLR,OVC,0.00,0.0,WeatherDisplay:10.37,2013-09-07 04:16:00,
2013-09-07 00:21:00,71.1,67.7,30.08,NE,47,0.1,1.1,89,0.00,CLR,OVC,0.00,0.0,WeatherDisplay:10.37,2013-09-07 04:21:00,
2013-09-07 00:26:00,71.0,67.6,30.08,NE,44,0.6,2.3,89,0.00,CLR,OVC,0.00,0.0,WeatherDisplay:10.37,2013-09-07 04:26:00,
2013-09-07 00:31:00,70.8,67.4,30.08,NE,42,0.0,0.0,89,0.00,CLR,OVC,0.00,0.0,WeatherDisplay:10.37,2013-09-07 04:31:00,
2013-09-07 00:36:00,70.7,67.6,30.08,NNW,327,0.0,0.0,90,0.00,CLR,OVC,0.00,0.0,WeatherDisplay:10.37,2013-09-07 04:36:00,
2013-09-07 00:41:00,70.6,67.5,30.08,NNW,338,0.0,0.0,90,0.00,CLR,OVC,0.00,0.0,WeatherDisplay:10.37,2013-09-07 04:41:00,
2013-09-07 00:46:00,70.4,67.3,30.08,NNE,25,0.7,2.3,90,0.00,CLR,OVC,0.00,0.0,WeatherDisplay:10.37,2013-09-07 04:46:00,
2013-09-07 00:51:00,70.3,67.2,30.08,North,355,2.4,4.0,90,0.00,CLR,OVC,0.00,0.0,WeatherDisplay:10.37,2013-09-07 04:51:00,
2013-09-07 00:56:00,70.3,67.2,30.08,NE,54,0.8,3.5,90,0.00,CLR,OVC,0.00,0.0,WeatherDisplay:10.37,2013-09-07 04:56:00,
2013-09-07 01:01:00,70.2,66.8,30.08,NE,52,0.4,2.0,89,0.00,CLR,OVC,0.00,0.0,WeatherDisplay:10.37,2013-09-07 05:01:00,
2013-09-07 01:06:00,70.1,66.7,30.08,North,11,0.8,2.3,89,0.00,CLR,OVC,0.00,0.0,WeatherDisplay:10.37,2013-09-07 05:06:00,
2013-09-07 01:11:00,70.0,66.9,30.07,North,11,0.0,0.0,90,0.00,CLR,OVC,0.00,0.0,WeatherDisplay:10.37,2013-09-07 05:11:00,
2013-09-07 01:16:00,69.8,66.7,30.07,ENE,59,1.1,3.5,90,0.00,CLR,OVC,0.00,0.0,WeatherDisplay:10.37,2013-09-07 05:16:00,
2013-09-07 01:21:00,69.6,66.5,30.07,NE,50,0.3,2.3,90,0.00,CLR,OVC,0.00,0.0,WeatherDisplay:10.37,2013-09-07 05:21:00,
2013-09-07 01:26:00,69.5,66.4,30.07,NE,50,0.0,0.0,90,0.00,CLR,OVC,0.00,0.0,WeatherDisplay:10.37,2013-09-07 05:26:00,
2013-09-07 01:31:00,69.4,66.3,30.07,ENE,65,1.0,5.0,90,0.00,CLR,OVC,0.00,0.0,WeatherDisplay:10.37,2013-09-07 05:31:00,
2013-09-07 01:36:00,69.2,66.1,30.07,ENE,57,0.0,2.3,90,0.00,CLR,OVC,0.00,0.0,WeatherDisplay:10.37,2013-09-07 05:36:00,
2013-09-07 01:41:00,69.1,66.0,30.07,NE,55,0.1,0.0,90,0.00,CLR,OVC,0.00,0.0,WeatherDisplay:10.37,2013-09-07 05:41:00,
2013-09-07 01:47:00,69.0,65.9,30.07,NE,55,0.0,0.0,90,0.00,CLR,OVC,0.00,0.0,WeatherDisplay:10.37,2013-09-07 05:47:00,
2013-09-07 01:51:00,68.8,66.1,30.06,NE,53,0.0,0.0,91,0.00,CLR,OVC,0.00,0.0,WeatherDisplay:10.37,2013-09-07 05:51:00,
2013-09-07 01:57:00,68.7,66.0,30.06,NE,46,0.3,1.1,91,0.00,CLR,OVC,0.00,0.0,WeatherDisplay:10.37,2013-09-07 05:57:00,
2013-09-07 02:02:00,68.6,65.9,30.06,NE,45,0.0,1.1,91,0.00,CLR,OVC,0.00,0.0,WeatherDisplay:10.37,2013-09-07 06:02:00,
2013-09-07 02:07:00,68.5,65.8,30.06,NE,45,0.0,0.0,91,0.00,CLR,OVC,0.00,0.0,WeatherDisplay:10.37,2013-09-07 06:07:00,
2013-09-07 02:12:00,68.3,65.6,30.06,NE,45,0.0,0.0,91,0.00,CLR,OVC,0.00,0.0,WeatherDisplay:10.37,2013-09-07 06:12:00,
2013-09-07 02:17:00,68.1,65.4,30.07,NE,45,0.0,0.0,91,0.00,CLR,OVC,0.00,0.0,WeatherDisplay:10.37,2013-09-07 06:17:00,
2013-09-07 02:22:00,67.9,65.2,30.07,NE,45,0.0,0.0,91,0.00,CLR,OVC,0.00,0.0,WeatherDisplay:10.37,2013-09-07 06:22:00,
2013-09-07 02:27:00,67.8,65.4,30.06,NNW,330,0.0,0.0,92,0.00,CLR,OVC,0.00,0.0,WeatherDisplay:10.37,2013-09-07 06:27:00,
2013-09-07 02:32:00,67.6,64.9,30.06,NNW,330,0.0,0.0,91,0.00,CLR,OVC,0.00,0.0,WeatherDisplay:10.37,2013-09-07 06:32:00,
2013-09-07 02:37:00,67.4,65.0,30.06,NNW,330,0.0,0.0,92,0.00,CLR,OVC,0.00,0.0,WeatherDisplay:10.37,2013-09-07 06:37:00,
2013-09-07 02:42:00,67.3,64.9,30.06,NNW,330,0.0,0.0,92,0.00,CLR,OVC,0.00,0.0,WeatherDisplay:10.37,2013-09-07 06:42:00,
2013-09-07 02:47:00,67.2,64.8,30.06,North,355,0.3,2.3,92,0.00,CLR,OVC,0.00,0.0,WeatherDisplay:10.37,2013-09-07 06:47:00,
2013-09-07 02:52:00,67.0,64.6,30.06,NNE,30,0.0,0.0,92,0.00,CLR,OVC,0.00,0.0,WeatherDisplay:10.37,2013-09-07 06:52:00,
2013-09-07 02:57:00,66.9,64.5,30.06,NNE,30,0.0,0.0,92,0.00,CLR,OVC,0.00,0.0,WeatherDisplay:10.37,2013-09-07 06:57:00,
2013-09-07 03:02:00,66.8,64.4,30.06,NNE,30,0.0,0.0,92,0.00,CLR,OVC,0.00,0.0,WeatherDisplay:10.37,2013-09-07 07:02:00,
2013-09-07 03:07:00,66.7,64.3,30.06,NNE,30,0.0,0.0,92,0.00,CLR,OVC,0.00,0.0,WeatherDisplay:10.37,2013-09-07 07:07:00,
2013-09-07 03:12:00,66.6,64.2,30.06,NNE,31,0.0,0.0,92,0.00,CLR,OVC,0.00,0.0,WeatherDisplay:10.37,2013-09-07 07:12:00,
2013-09-07 03:17:00,66.5,64.1,30.06,NNE,30,0.0,0.0,92,0.00,CLR,OVC,0.00,0.0,WeatherDisplay:10.37,2013-09-07 07:17:00,
2013-09-07 03:22:00,66.3,63.9,30.06,NNE,30,0.0,0.0,92,0.00,CLR,OVC,0.00,0.0,WeatherDisplay:10.37,2013-09-07 07:22:00,
2013-09-07 03:27:00,66.3,63.9,30.06,NNE,30,0.0,0.0,92,0.00,CLR,OVC,0.00,0.0,WeatherDisplay:10.37,2013-09-07 07:27:00,
2013-09-07 03:32:00,66.2,63.8,30.06,NNE,30,0.0,0.0,92,0.00,CLR,OVC,0.00,0.0,WeatherDisplay:10.37,2013-09-07 07:32:00,
2013-09-07 03:37:00,66.1,63.7,30.06,NNE,30,0.0,0.0,92,0.00,CLR,OVC,0.00,0.0,WeatherDisplay:10.37,2013-09-07 07:37:00,
2013-09-07 03:42:00,65.9,63.5,30.06,NNE,30,0.0,0.0,92,0.00,CLR,OVC,0.00,0.0,WeatherDisplay:10.37,2013-09-07 07:42:00,
2013-09-07 03:47:00,65.8,63.4,30.06,NNE,30,0.0,0.0,92,0.00,CLR,OVC,0.00,0.0,WeatherDisplay:10.37,2013-09-07 07:47:00,
2013-09-07 03:52:00,65.7,63.3,30.06,NNE,30,0.0,0.0,92,0.00,CLR,OVC,0.00,0.0,WeatherDisplay:10.37,2013-09-07 07:52:00,
2013-09-07 03:57:00,65.6,63.2,30.06,NNE,32,0.0,0.0,92,0.00,CLR,OVC,0.00,0.0,WeatherDisplay:10.37,2013-09-07 07:57:00,
2013-09-07 04:02:00,65.5,63.1,30.06,NNE,32,0.0,0.0,92,0.00,CLR,OVC,0.00,0.0,WeatherDisplay:10.37,2013-09-07 08:02:00,
2013-09-07 04:07:00,65.4,63.3,30.06,NNE,25,0.0,0.0,93,0.00,CLR,OVC,0.00,0.0,WeatherDisplay:10.37,2013-09-07 08:07:00,
2013-09-07 04:12:00,65.2,63.1,30.06,NNE,25,0.0,0.0,93,0.00,CLR,OVC,0.00,0.0,WeatherDisplay:10.37,2013-09-07 08:12:00,
2013-09-07 04:17:00,65.1,63.0,30.06,NNE,25,0.0,0.0,93,0.00,CLR,OVC,0.00,0.0,WeatherDisplay:10.37,2013-09-07 08:17:00,
2013-09-07 04:22:00,65.0,62.6,30.06,NNE,25,0.0,0.0,92,0.00,CLR,OVC,0.00,0.0,WeatherDisplay:10.37,2013-09-07 08:22:00,
2013-09-07 04:27:00,64.9,62.8,30.05,NNE,25,0.0,0.0,93,0.00,CLR,OVC,0.00,0.0,WeatherDisplay:10.37,2013-09-07 08:27:00,
2013-09-07 04:32:00,64.9,62.8,30.05,ENE,74,0.1,2.3,93,0.00,CLR,OVC,0.00,0.0,WeatherDisplay:10.37,2013-09-07 08:32:00,
2013-09-07 04:37:00,64.8,62.7,30.05,NE,38,0.1,2.3,93,0.00,CLR,OVC,0.00,0.0,WeatherDisplay:10.37,2013-09-07 08:37:00,
2013-09-07 04:42:00,64.9,62.8,30.06,NNW,337,0.1,1.0,93,0.00,CLR,OVC,0.00,0.0,WeatherDisplay:10.37,2013-09-07 08:42:00,
2013-09-07 04:47:00,64.9,62.5,30.05,North,10,0.0,0.0,92,0.00,CLR,OVC,0.00,0.0,WeatherDisplay:10.37,2013-09-07 08:47:00,
2013-09-07 04:52:00,65.0,62.6,30.05,NE,54,0.4,3.5,92,0.00,CLR,OVC,0.00,0.0,WeatherDisplay:10.37,2013-09-07 08:52:00,
2013-09-07 04:57:00,65.0,62.6,30.06,ENE,57,0.0,0.0,92,0.00,CLR,OVC,0.00,0.0,WeatherDisplay:10.37,2013-09-07 08:57:00,
2013-09-07 05:02:00,65.0,62.6,30.06,NE,43,0.7,2.3,92,0.00,CLR,OVC,0.00,0.0,WeatherDisplay:10.37,2013-09-07 09:02:00,
2013-09-07 05:07:00,65.0,62.6,30.06,North,349,0.0,0.0,92,0.00,CLR,OVC,0.00,0.0,WeatherDisplay:10.37,2013-09-07 09:07:00,
2013-09-07 05:12:00,64.9,62.5,30.06,North,350,0.0,0.0,92,0.00,CLR,OVC,0.00,0.0,WeatherDisplay:10.37,2013-09-07 09:12:00,
2013-09-07 05:17:00,64.9,62.5,30.06,North,349,0.2,1.1,92,0.00,CLR,OVC,0.00,0.0,WeatherDisplay:10.37,2013-09-07 09:17:00,
2013-09-07 05:22:00,64.8,62.4,30.06,NNW,328,0.0,0.0,92,0.00,CLR,OVC,0.00,0.0,WeatherDisplay:10.37,2013-09-07 09:22:00,
2013-09-07 05:27:00,64.7,62.3,30.06,NNW,328,0.0,0.0,92,0.00,CLR,OVC,0.00,0.0,WeatherDisplay:10.37,2013-09-07 09:27:00,
2013-09-07 05:32:00,64.6,62.2,30.06,NNW,333,0.0,0.0,92,0.00,CLR,OVC,0.00,0.0,WeatherDisplay:10.37,2013-09-07 09:32:00,
2013-09-07 05:37:00,64.5,62.1,30.06,NW,322,0.0,0.0,92,0.00,CLR,OVC,0.00,0.0,WeatherDisplay:10.37,2013-09-07 09:37:00,
2013-09-07 05:42:00,64.4,62.0,30.06,NW,322,0.0,0.0,92,0.00,CLR,OVC,0.00,0.0,WeatherDisplay:10.37,2013-09-07 09:42:00,
2013-09-07 05:47:00,64.3,61.9,30.07,NNE,19,0.0,0.0,92,0.00,CLR,OVC,0.00,0.0,WeatherDisplay:10.37,2013-09-07 09:47:00,
2013-09-07 05:52:00,64.2,61.8,30.07,NNE,19,0.0,0.0,92,0.00,CLR,OVC,0.00,0.0,WeatherDisplay:10.37,2013-09-07 09:52:00,
2013-09-07 05:57:00,64.1,61.7,30.07,NNE,19,0.0,0.0,92,0.00,CLR,OVC,0.00,0.0,WeatherDisplay:10.37,2013-09-07 09:57:00,
2013-09-07 06:02:00,64.0,61.6,30.07,NNE,17,0.0,0.0,92,0.00,CLR,OVC,0.00,0.0,WeatherDisplay:10.37,2013-09-07 10:02:00,
2013-09-07 06:07:00,63.9,61.8,30.07,NNE,17,0.0,0.0,93,0.00,CLR,OVC,0.00,0.0,WeatherDisplay:10.37,2013-09-07 10:07:00,
2013-09-07 06:12:00,63.8,61.7,30.07,NNE,18,0.0,1.1,93,0.00,CLR,OVC,0.00,0.0,WeatherDisplay:10.37,2013-09-07 10:12:00,
2013-09-07 06:17:00,63.7,61.6,30.08,NNE,18,0.0,0.0,93,0.00,CLR,OVC,0.00,0.0,WeatherDisplay:10.37,2013-09-07 10:17:00,
2013-09-07 06:22:00,63.6,61.5,30.08,NNE,18,0.0,0.0,93,0.00,OVC,,0.00,0.0,WeatherDisplay:10.37,2013-09-07 10:22:00,
2013-09-07 06:27:00,63.5,61.4,30.08,NNE,18,0.0,0.0,93,0.00,OVC,,0.00,0.0,WeatherDisplay:10.37,2013-09-07 10:27:00,
2013-09-07 06:32:00,63.4,61.3,30.08,NNE,17,0.0,0.0,93,0.00,OVC,,0.00,0.0,WeatherDisplay:10.37,2013-09-07 10:32:00,
2013-09-07 06:37:00,63.3,61.2,30.08,NNE,17,0.0,0.0,93,0.00,OVC,,0.00,0.0,WeatherDisplay:10.37,2013-09-07 10:37:00,
2013-09-07 06:42:00,63.2,61.1,30.08,North,355,0.0,0.0,93,0.00,OVC,,0.00,0.0,WeatherDisplay:10.37,2013-09-07 10:42:00,
2013-09-07 06:47:00,63.1,61.0,30.08,North,355,0.0,0.0,93,0.00,OVC,,0.00,0.0,WeatherDisplay:10.37,2013-09-07 10:47:00,
2013-09-07 06:53:00,62.9,60.8,30.08,North,355,0.0,0.0,93,0.00,OVC,,0.00,0.0,WeatherDisplay:10.37,2013-09-07 10:53:00,
2013-09-07 06:58:00,62.9,61.1,30.08,North,355,0.0,0.0,94,0.00,OVC,,0.00,0.0,WeatherDisplay:10.37,2013-09-07 10:58:00,
2013-09-07 07:03:00,62.8,61.0,30.08,North,355,0.0,0.0,94,0.00,OVC,,0.00,0.0,WeatherDisplay:10.37,2013-09-07 11:03:00,
2013-09-07 07:08:00,62.7,60.9,30.08,North,355,0.0,0.0,94,0.00,OVC,,0.00,0.0,WeatherDisplay:10.37,2013-09-07 11:08:00,
2013-09-07 07:13:00,62.7,60.9,30.08,North,355,0.0,0.0,94,0.00,OVC,,0.00,0.0,WeatherDisplay:10.37,2013-09-07 11:13:00,
2013-09-07 07:18:00,62.7,60.9,30.08,North,355,0.0,0.0,94,0.00,OVC,,0.00,0.0,WeatherDisplay:10.37,2013-09-07 11:18:00,
2013-09-07 07:23:00,63.0,61.5,30.08,North,355,0.0,0.0,95,0.00,OVC,,0.00,0.0,WeatherDisplay:10.37,2013-09-07 11:23:00,
2013-09-07 07:28:00,63.4,61.6,30.09,NNW,336,0.0,0.0,94,0.00,OVC,,0.00,0.0,WeatherDisplay:10.37,2013-09-07 11:28:00,
2013-09-07 07:33:00,64.0,62.2,30.09,NNW,337,0.0,0.0,94,0.00,OVC,,0.00,0.0,WeatherDisplay:10.37,2013-09-07 11:33:00,
2013-09-07 07:38:00,64.6,62.2,30.09,NW,326,0.0,0.0,92,0.00,OVC,,0.00,0.0,WeatherDisplay:10.37,2013-09-07 11:38:00,
2013-09-07 07:43:00,65.3,62.6,30.08,NNW,333,0.0,0.0,91,0.00,OVC,,0.00,0.0,WeatherDisplay:10.37,2013-09-07 11:43:00,
2013-09-07 07:48:00,66.0,63.0,30.08,NNE,19,0.0,0.0,90,0.00,OVC,,0.00,0.0,WeatherDisplay:10.37,2013-09-07 11:48:00,
2013-09-07 07:53:00,66.6,62.9,30.08,NE,48,0.0,3.5,88,0.00,OVC,,0.00,0.0,WeatherDisplay:10.37,2013-09-07 11:53:00,
2013-09-07 07:58:00,67.4,63.4,30.08,NE,46,0.5,1.1,87,0.00,OVC,,0.00,0.0,WeatherDisplay:10.37,2013-09-07 11:58:00,
2013-09-07 08:03:00,67.9,63.9,30.08,NNE,29,0.1,1.0,87,0.00,OVC,,0.00,0.0,WeatherDisplay:10.37,2013-09-07 12:03:00,
2013-09-07 08:08:00,68.6,63.9,30.08,NE,46,0.0,1.1,85,0.00,OVC,,0.00,0.0,WeatherDisplay:10.37,2013-09-07 12:08:00,
2013-09-07 08:13:00,69.1,63.7,30.07,NNE,24,2.1,3.5,83,0.00,OVC,,0.00,0.0,WeatherDisplay:10.37,2013-09-07 12:13:00,
2013-09-07 08:18:00,69.5,64.5,30.07,NE,41,0.0,2.3,84,0.00,OVC,,0.00,0.0,WeatherDisplay:10.37,2013-09-07 12:18:00,
2013-09-07 08:23:00,70.0,64.2,30.07,NE,46,0.6,2.3,82,0.00,OVC,,0.00,0.0,WeatherDisplay:10.37,2013-09-07 12:23:00,
2013-09-07 08:28:00,70.4,64.6,30.07,ENE,61,0.5,0.0,82,0.00,OVC,,0.00,0.0,WeatherDisplay:10.37,2013-09-07 12:28:00,
2013-09-07 08:33:00,71.2,65.1,30.07,NE,45,0.7,6.9,81,0.00,OVC,,0.00,0.0,WeatherDisplay:10.37,2013-09-07 12:33:00,
2013-09-07 08:38:00,71.5,65.0,30.07,NW,325,0.0,3.5,80,0.00,OVC,,0.00,0.0,WeatherDisplay:10.37,2013-09-07 12:38:00,
2013-09-07 08:43:00,72.1,65.2,30.07,NE,53,1.1,3.5,79,0.00,OVC,,0.00,0.0,WeatherDisplay:10.37,2013-09-07 12:43:00,
2013-09-07 08:48:00,72.6,65.3,30.07,NE,44,2.7,6.9,78,0.00,OVC,,0.00,0.0,WeatherDisplay:10.37,2013-09-07 12:48:00,
2013-09-07 08:53:00,73.1,65.8,30.07,NE,47,1.8,3.5,78,0.00,OVC,,0.00,0.0,WeatherDisplay:10.37,2013-09-07 12:53:00,
2013-09-07 08:58:00,73.7,66.0,30.08,North,355,2.2,5.8,77,0.00,OVC,,0.00,0.0,WeatherDisplay:10.37,2013-09-07 12:58:00,
2013-09-07 09:03:00,73.9,65.9,30.08,ENE,59,3.2,5.8,76,0.00,OVC,,0.00,0.0,WeatherDisplay:10.37,2013-09-07 13:03:00,
2013-09-07 09:08:00,74.3,66.2,30.08,North,11,4.8,5.0,76,0.00,OVC,,0.00,0.0,WeatherDisplay:10.37,2013-09-07 13:08:00,
2013-09-07 09:13:00,74.3,65.5,30.08,NE,52,5.2,7.0,74,0.00,OVC,,0.00,0.0,WeatherDisplay:10.37,2013-09-07 13:13:00,
2013-09-07 09:18:00,74.4,65.6,30.08,NNE,26,3.8,7.0,74,0.00,OVC,,0.00,0.0,WeatherDisplay:10.37,2013-09-07 13:18:00,
2013-09-07 09:23:00,74.8,66.0,30.08,NW,322,6.7,10.4,74,0.00,OVC,,0.00,0.0,WeatherDisplay:10.37,2013-09-07 13:23:00,
2013-09-07 09:28:00,75.2,65.6,30.08,NE,46,4.7,9.2,72,0.00,OVC,,0.00,0.0,WeatherDisplay:10.37,2013-09-07 13:28:00,
2013-09-07 09:33:00,75.6,65.9,30.08,ENE,57,2.9,6.9,72,0.00,OVC,,0.00,0.0,WeatherDisplay:10.37,2013-09-07 13:33:00,
2013-09-07 09:38:00,76.3,66.2,30.08,NE,42,2.9,4.6,71,0.00,OVC,,0.00,0.0,WeatherDisplay:10.37,2013-09-07 13:38:00,
2013-09-07 09:43:00,76.8,65.9,30.08,NNW,338,2.6,6.0,69,0.00,OVC,,0.00,0.0,WeatherDisplay:10.37,2013-09-07 13:43:00,
2013-09-07 09:48:00,77.1,65.7,30.08,NW,317,4.6,6.9,68,0.00,OVC,,0.00,0.0,WeatherDisplay:10.37,2013-09-07 13:48:00,
2013-09-07 09:53:00,77.4,65.1,30.08,NNE,18,5.8,8.1,66,0.00,OVC,,0.00,0.0,WeatherDisplay:10.37,2013-09-07 13:53:00,
2013-09-07 09:58:00,77.6,65.3,30.08,NNW,335,3.9,8.1,66,0.00,OVC,,0.00,0.0,WeatherDisplay:10.37,2013-09-07 13:58:00,
2013-09-07 10:03:00,77.9,65.6,30.08,East,80,2.8,6.9,66,0.00,OVC,,0.00,0.0,WeatherDisplay:10.37,2013-09-07 14:03:00,
2013-09-07 10:08:00,78.4,65.2,30.08,NE,55,4.5,8.1,64,0.00,OVC,,0.00,0.0,WeatherDisplay:10.37,2013-09-07 14:08:00,
2013-09-07 10:13:00,78.7,65.0,30.08,ENE,59,4.4,6.9,63,0.00,OVC,,0.00,0.0,WeatherDisplay:10.37,2013-09-07 14:13:00,
2013-09-07 10:18:00,79.0,64.9,30.08,NE,55,4.8,6.9,62,0.00,OVC,,0.00,0.0,WeatherDisplay:10.37,2013-09-07 14:18:00,
2013-09-07 10:23:00,79.3,64.7,30.08,NE,40,6.0,10.4,61,0.00,OVC,,0.00,0.0,WeatherDisplay:10.37,2013-09-07 14:23:00,
2013-09-07 10:28:00,79.0,64.4,30.08,ENE,69,3.4,6.9,61,0.00,OVC,,0.00,0.0,WeatherDisplay:10.37,2013-09-07 14:28:00,
2013-09-07 10:33:00,79.3,63.7,30.08,North,5,5.4,9.2,59,0.00,OVC,,0.00,0.0,WeatherDisplay:10.37,2013-09-07 14:33:00,
2013-09-07 10:38:00,79.4,63.8,30.09,NE,50,5.7,9.2,59,0.00,OVC,,0.00,0.0,WeatherDisplay:10.37,2013-09-07 14:38:00,
2013-09-07 10:43:00,79.5,63.9,30.09,NNE,32,2.4,8.1,59,0.00,OVC,,0.00,0.0,WeatherDisplay:10.37,2013-09-07 14:43:00,
2013-09-07 10:48:00,79.8,64.7,30.09,NNE,32,6.6,9.2,60,0.00,OVC,,0.00,0.0,WeatherDisplay:10.37,2013-09-07 14:48:00,
2013-09-07 10:53:00,79.7,64.1,30.09,NE,45,6.8,12.7,59,0.00,OVC,,0.00,0.0,WeatherDisplay:10.37,2013-09-07 14:53:00,
2013-09-07 10:58:00,79.8,64.2,30.09,North,9,3.6,8.1,59,0.00,OVC,,0.00,0.0,WeatherDisplay:10.37,2013-09-07 14:58:00,
2013-09-07 11:03:00,80.0,65.3,30.09,NE,53,1.5,7.0,61,0.00,OVC,,0.00,0.0,WeatherDisplay:10.37,2013-09-07 15:03:00,
2013-09-07 11:09:00,80.5,64.9,30.09,NNE,23,4.8,9.2,59,0.00,OVC,,0.00,0.0,WeatherDisplay:10.37,2013-09-07 15:09:00,
2013-09-07 11:14:00,80.5,63.9,30.09,NNE,24,6.2,9.2,57,0.00,OVC,,0.00,0.0,WeatherDisplay:10.37,2013-09-07 15:14:00,
2013-09-07 11:19:00,80.6,64.0,30.09,NE,46,4.9,8.1,57,0.00,OVC,,0.00,0.0,WeatherDisplay:10.37,2013-09-07 15:19:00,
2013-09-07 11:24:00,80.8,63.1,30.09,ENE,78,5.3,8.1,55,0.00,OVC,,0.00,0.0,WeatherDisplay:10.37,2013-09-07 15:24:00,
2013-09-07 11:29:00,80.5,63.9,30.09,ENE,78,2.8,4.6,57,0.00,OVC,,0.00,0.0,WeatherDisplay:10.37,2013-09-07 15:29:00,
2013-09-07 11:34:00,80.3,63.7,30.09,North,350,3.1,3.5,57,0.00,OVC,,0.00,0.0,WeatherDisplay:10.37,2013-09-07 15:34:00,
2013-09-07 11:39:00,80.5,63.9,30.08,NE,54,4.2,9.0,57,0.00,OVC,,0.00,0.0,WeatherDisplay:10.37,2013-09-07 15:39:00,
2013-09-07 11:44:00,80.5,63.9,30.08,NE,42,4.9,9.0,57,0.00,OVC,,0.00,0.0,WeatherDisplay:10.37,2013-09-07 15:44:00,
2013-09-07 11:49:00,80.6,64.0,30.08,NE,43,2.2,6.9,57,0.00,OVC,,0.00,0.0,WeatherDisplay:10.37,2013-09-07 15:49:00,
2013-09-07 11:54:00,80.6,64.0,30.08,NE,45,6.6,8.1,57,0.00,OVC,,0.00,0.0,WeatherDisplay:10.37,2013-09-07 15:54:00,
2013-09-07 11:59:00,80.7,63.5,30.08,NW,310,6.1,10.4,56,0.00,OVC,,0.00,0.0,WeatherDisplay:10.37,2013-09-07 15:59:00,
2013-09-07 12:04:00,80.6,64.0,30.07,NE,56,4.6,8.0,57,0.00,OVC,,0.00,0.0,WeatherDisplay:10.37,2013-09-07 16:04:00,
2013-09-07 12:09:00,80.4,63.8,30.07,NW,317,2.9,7.0,57,0.00,OVC,,0.00,0.0,WeatherDisplay:10.37,2013-09-07 16:09:00,
2013-09-07 12:14:00,80.9,63.2,30.07,ENE,72,5.0,6.9,55,0.00,OVC,,0.00,0.0,WeatherDisplay:10.37,2013-09-07 16:14:00,
2013-09-07 12:19:00,81.3,63.6,30.07,ENE,65,6.7,8.1,55,0.00,OVC,,0.00,0.0,WeatherDisplay:10.37,2013-09-07 16:19:00,
2013-09-07 12:24:00,81.4,64.7,30.07,NE,52,4.4,8.1,57,0.00,OVC,,0.00,0.0,WeatherDisplay:10.37,2013-09-07 16:24:00,
2013-09-07 12:29:00,81.4,64.2,30.07,NE,50,3.2,4.0,56,0.00,OVC,,0.00,0.0,WeatherDisplay:10.37,2013-09-07 16:29:00,
2013-09-07 12:34:00,81.7,64.0,30.07,North,5,2.5,3.5,55,0.00,OVC,,0.00,0.0,WeatherDisplay:10.37,2013-09-07 16:34:00,
2013-09-07 12:39:00,81.9,64.1,30.06,ENE,62,2.6,9.2,55,0.00,OVC,,0.00,0.0,WeatherDisplay:10.37,2013-09-07 16:39:00,
2013-09-07 12:44:00,82.0,63.2,30.07,WNW,284,3.0,4.6,53,0.00,OVC,,0.00,0.0,WeatherDisplay:10.37,2013-09-07 16:44:00,
2013-09-07 12:49:00,82.4,63.0,30.06,West,271,2.0,5.8,52,0.00,OVC,,0.00,0.0,WeatherDisplay:10.37,2013-09-07 16:49:00,
2013-09-07 12:54:00,83.1,63.1,30.06,NW,310,2.7,4.0,51,0.00,OVC,,0.00,0.0,WeatherDisplay:10.37,2013-09-07 16:54:00,
2013-09-07 12:59:00,83.3,62.7,30.06,NE,43,2.4,3.5,50,0.00,OVC,,0.00,0.0,WeatherDisplay:10.37,2013-09-07 16:59:00,
2013-09-07 13:04:00,83.3,62.1,30.06,East,82,4.0,6.0,49,0.00,OVC,,0.00,0.0,WeatherDisplay:10.37,2013-09-07 17:04:00,
2013-09-07 13:09:00,82.9,62.4,30.06,NW,304,3.6,4.6,50,0.00,OVC,,0.00,0.0,WeatherDisplay:10.37,2013-09-07 17:09:00,
2013-09-07 13:14:00,82.6,60.9,30.06,NE,42,4.1,4.1,48,0.00,OVC,,0.00,0.0,WeatherDisplay:10.37,2013-09-07 17:14:00,
2013-09-07 13:19:00,82.6,63.2,30.06,NE,51,1.2,3.5,52,0.00,OVC,,0.00,0.0,WeatherDisplay:10.37,2013-09-07 17:19:00,
2013-09-07 13:24:00,82.7,60.4,30.05,East,88,1.6,3.5,47,0.00,OVC,,0.00,0.0,WeatherDisplay:10.37,2013-09-07 17:24:00,
2013-09-07 13:29:00,82.7,62.7,30.06,NE,38,4.3,8.1,51,0.00,OVC,,0.00,0.0,WeatherDisplay:10.37,2013-09-07 17:29:00,
2013-09-07 13:34:00,82.8,61.7,30.05,ESE,109,2.1,4.6,49,0.00,OVC,,0.00,0.0,WeatherDisplay:10.37,2013-09-07 17:34:00,
2013-09-07 13:39:00,82.8,62.3,30.05,NE,55,4.7,6.9,50,0.00,OVC,,0.00,0.0,WeatherDisplay:10.37,2013-09-07 17:39:00,
2013-09-07 13:44:00,82.7,61.6,30.05,NNW,333,3.1,5.8,49,0.00,OVC,,0.00,0.0,WeatherDisplay:10.37,2013-09-07 17:44:00,
2013-09-07 13:49:00,83.0,62.4,30.05,NNW,340,1.2,3.5,50,0.00,OVC,,0.00,0.0,WeatherDisplay:10.37,2013-09-07 17:49:00,
2013-09-07 13:54:00,83.4,61.1,30.04,WSW,257,4.0,5.8,47,0.00,OVC,,0.00,0.0,WeatherDisplay:10.37,2013-09-07 17:54:00,
2013-09-07 13:59:00,83.5,61.1,30.04,NNE,15,4.3,6.9,47,0.00,OVC,,0.00,0.0,WeatherDisplay:10.37,2013-09-07 17:59:00,
2013-09-07 14:04:00,83.8,62.0,30.04,ENE,75,0.4,2.3,48,0.00,OVC,,0.00,0.0,WeatherDisplay:10.37,2013-09-07 18:04:00,
2013-09-07 14:09:00,84.4,60.7,30.03,WSW,252,1.8,4.0,45,0.00,OVC,,0.00,0.0,WeatherDisplay:10.37,2013-09-07 18:09:00,
2013-09-07 14:14:00,84.9,59.9,30.03,WNW,290,0.9,4.0,43,0.00,OVC,,0.00,0.0,WeatherDisplay:10.37,2013-09-07 18:14:00,
2013-09-07 14:19:00,85.3,60.3,30.03,West,267,0.9,2.3,43,0.00,OVC,,0.00,0.0,WeatherDisplay:10.37,2013-09-07 18:19:00,
2013-09-07 14:24:00,85.5,61.1,30.03,ENE,63,4.3,5.8,44,0.00,OVC,,0.00,0.0,WeatherDisplay:10.37,2013-09-07 18:24:00,
2013-09-07 14:29:00,85.3,61.6,30.03,NE,53,3.1,4.6,45,0.00,OVC,,0.00,0.0,WeatherDisplay:10.37,2013-09-07 18:29:00,
2013-09-07 14:34:00,84.9,60.6,30.03,NNW,335,0.4,2.3,44,0.00,OVC,,0.00,0.0,WeatherDisplay:10.37,2013-09-07 18:34:00,
2013-09-07 14:39:00,85.0,61.3,30.03,WNW,301,2.1,3.5,45,0.00,OVC,,0.00,0.0,WeatherDisplay:10.37,2013-09-07 18:39:00,
2013-09-07 14:44:00,84.7,59.7,30.03,East,82,2.1,4.6,43,0.00,OVC,,0.00,0.0,WeatherDisplay:10.37,2013-09-07 18:44:00,
2013-09-07 14:49:00,84.7,61.6,30.02,SSW,196,0.3,3.5,46,0.00,OVC,,0.00,0.0,WeatherDisplay:10.37,2013-09-07 18:49:00,
2013-09-07 14:54:00,84.6,59.6,30.02,NW,313,0.7,3.5,43,0.00,OVC,,0.00,0.0,WeatherDisplay:10.37,2013-09-07 18:54:00,
2013-09-07 15:00:00,84.5,60.8,30.02,SSE,154,1.6,3.5,45,0.00,OVC,,0.00,0.0,WeatherDisplay:10.37,2013-09-07 19:00:00,
2013-09-07 15:05:00,84.8,64.7,30.02,NE,50,3.9,6.0,51,0.00,OVC,,0.00,0.0,WeatherDisplay:10.37,2013-09-07 19:05:00,
2013-09-07 15:10:00,84.0,63.9,30.01,ESE,105,4.3,5.0,51,0.00,OVC,,0.00,0.0,WeatherDisplay:10.37,2013-09-07 19:10:00,
2013-09-07 15:15:00,83.1,64.2,30.01,ENE,65,3.8,5.0,53,0.00,OVC,,0.00,0.0,WeatherDisplay:10.37,2013-09-07 19:15:00,
2013-09-07 15:20:00,82.9,65.6,30.01,NE,55,5.8,8.1,56,0.00,OVC,,0.00,0.0,WeatherDisplay:10.37,2013-09-07 19:20:00,
2013-09-07 15:25:00,82.9,64.5,30.00,South,170,4.2,4.6,54,0.00,OVC,,0.00,0.0,WeatherDisplay:10.37,2013-09-07 19:25:00,
2013-09-07 15:30:00,82.5,64.7,30.01,NE,54,5.7,9.2,55,0.00,OVC,,0.00,0.0,WeatherDisplay:10.37,2013-09-07 19:30:00,
2013-09-07 15:35:00,82.5,64.7,30.00,ESE,103,3.6,5.0,55,0.00,OVC,,0.00,0.0,WeatherDisplay:10.37,2013-09-07 19:35:00,
2013-09-07 15:40:00,82.4,64.1,30.00,East,90,3.4,6.9,54,0.00,OVC,,0.00,0.0,WeatherDisplay:10.37,2013-09-07 19:40:00,
2013-09-07 15:45:00,82.1,64.8,30.00,East,82,2.8,3.5,56,0.00,OVC,,0.00,0.0,WeatherDisplay:10.37,2013-09-07 19:45:00,
2013-09-07 15:50:00,82.2,64.4,30.00,ENE,63,4.6,10.4,55,0.00,OVC,,0.00,0.0,WeatherDisplay:10.37,2013-09-07 19:50:00,
2013-09-07 15:55:00,82.1,63.8,30.00,ESE,102,4.5,7.0,54,0.00,OVC,,0.00,0.0,WeatherDisplay:10.37,2013-09-07 19:55:00,
2013-09-07 16:00:00,81.8,64.1,30.00,ENE,63,5.5,5.5,55,0.00,OVC,,0.00,0.0,WeatherDisplay:10.37,2013-09-07 20:00:00,
2013-09-07 16:05:00,81.9,64.1,30.00,NE,36,5.4,8.1,55,0.00,OVC,,0.00,0.0,WeatherDisplay:10.37,2013-09-07 20:05:00,
2013-09-07 16:10:00,82.0,64.8,30.00,ENE,66,4.6,4.6,56,0.00,OVC,,0.00,0.0,WeatherDisplay:10.37,2013-09-07 20:10:00,
2013-09-07 16:15:00,82.0,63.7,30.00,SSE,165,2.3,3.5,54,0.00,OVC,,0.00,0.0,WeatherDisplay:10.37,2013-09-07 20:15:00,
2013-09-07 16:20:00,81.6,62.8,30.00,East,81,2.7,6.9,53,0.00,OVC,,0.00,0.0,WeatherDisplay:10.37,2013-09-07 20:20:00,
2013-09-07 16:25:00,81.4,63.2,30.00,East,90,4.4,9.2,54,0.00,OVC,,0.00,0.0,WeatherDisplay:10.37,2013-09-07 20:25:00,
2013-09-07 16:30:00,81.4,63.2,30.00,ENE,76,1.3,3.5,54,0.00,OVC,,0.00,0.0,WeatherDisplay:10.37,2013-09-07 20:30:00,
2013-09-07 16:35:00,81.8,63.0,30.00,ESE,117,4.8,8.1,53,0.00,OVC,,0.00,0.0,WeatherDisplay:10.37,2013-09-07 20:35:00,
2013-09-07 16:40:00,82.1,63.3,30.00,SE,137,3.1,5.0,53,0.00,OVC,,0.00,0.0,WeatherDisplay:10.37,2013-09-07 20:40:00,
2013-09-07 16:45:00,81.9,63.1,30.00,SSE,164,3.4,8.0,53,0.00,OVC,,0.00,0.0,WeatherDisplay:10.37,2013-09-07 20:45:00,
2013-09-07 16:50:00,81.7,63.4,30.00,ESE,118,3.1,4.6,54,0.00,OVC,,0.00,0.0,WeatherDisplay:10.37,2013-09-07 20:50:00,
2013-09-07 16:55:00,81.4,63.2,30.00,East,97,3.1,7.0,54,0.00,OVC,,0.00,0.0,WeatherDisplay:10.37,2013-09-07 20:55:00,
2013-09-07 17:00:00,81.2,63.0,29.99,East,97,3.8,6.0,54,0.00,OVC,,0.00,0.0,WeatherDisplay:10.37,2013-09-07 21:00:00,
2013-09-07 17:05:00,81.1,62.9,29.99,ESE,115,2.5,3.5,54,0.00,OVC,,0.00,0.0,WeatherDisplay:10.37,2013-09-07 21:05:00,
2013-09-07 17:10:00,81.0,62.3,29.99,NNE,19,3.6,4.6,53,0.00,OVC,,0.00,0.0,WeatherDisplay:10.37,2013-09-07 21:10:00,
2013-09-07 17:15:00,81.0,62.8,29.99,ESE,123,4.9,8.1,54,0.00,OVC,,0.00,0.0,WeatherDisplay:10.37,2013-09-07 21:15:00,
2013-09-07 17:20:00,81.0,63.3,29.99,ENE,66,3.5,4.6,55,0.00,OVC,,0.00,0.0,WeatherDisplay:10.37,2013-09-07 21:20:00,
2013-09-07 17:25:00,81.0,63.3,29.99,NE,46,3.8,4.6,55,0.00,OVC,,0.00,0.0,WeatherDisplay:10.37,2013-09-07 21:25:00,
2013-09-07 17:30:00,81.0,63.3,29.99,ESE,113,0.7,3.0,55,0.00,OVC,,0.00,0.0,WeatherDisplay:10.37,2013-09-07 21:30:00,
2013-09-07 17:35:00,80.9,63.2,29.99,East,99,2.4,4.6,55,0.00,OVC,,0.00,0.0,WeatherDisplay:10.37,2013-09-07 21:35:00,
2013-09-07 17:40:00,80.8,62.6,29.99,East,92,4.2,8.1,54,0.00,OVC,,0.00,0.0,WeatherDisplay:10.37,2013-09-07 21:40:00,
2013-09-07 17:45:00,80.6,62.4,29.99,East,88,0.5,2.3,54,0.00,OVC,,0.00,0.0,WeatherDisplay:10.37,2013-09-07 21:45:00,
2013-09-07 17:50:00,80.6,62.9,29.99,ENE,57,2.8,4.6,55,0.00,OVC,,0.00,0.0,WeatherDisplay:10.37,2013-09-07 21:50:00,
2013-09-07 17:55:00,80.5,62.8,29.99,East,80,1.7,3.5,55,0.00,OVC,,0.00,0.0,WeatherDisplay:10.37,2013-09-07 21:55:00,
2013-09-07 18:00:00,80.3,62.7,29.99,East,84,3.1,6.9,55,0.00,OVC,,0.00,0.0,WeatherDisplay:10.37,2013-09-07 22:00:00,
2013-09-07 18:05:00,80.1,63.0,29.99,NE,49,1.9,3.5,56,0.00,OVC,,0.00,0.0,WeatherDisplay:10.37,2013-09-07 22:05:00,
2013-09-07 18:11:00,80.0,63.4,29.99,NE,53,3.2,3.5,57,0.00,OVC,,0.00,0.0,WeatherDisplay:10.37,2013-09-07 22:11:00,
2013-09-07 18:16:00,79.6,63.0,29.99,ENE,71,1.5,4.6,57,0.00,OVC,,0.00,0.0,WeatherDisplay:10.37,2013-09-07 22:16:00,
2013-09-07 18:21:00,79.3,63.2,29.99,NE,42,1.5,3.5,58,0.00,OVC,,0.00,0.0,WeatherDisplay:10.37,2013-09-07 22:21:00,
2013-09-07 18:26:00,78.9,62.9,29.98,ENE,59,3.0,3.5,58,0.00,OVC,,0.00,0.0,WeatherDisplay:10.37,2013-09-07 22:26:00,
2013-09-07 18:31:00,78.6,63.1,29.98,NE,35,2.8,3.5,59,0.00,OVC,,0.00,0.0,WeatherDisplay:10.37,2013-09-07 22:31:00,
2013-09-07 18:36:00,78.4,62.9,29.98,ENE,71,3.2,5.0,59,0.00,OVC,,0.00,0.0,WeatherDisplay:10.37,2013-09-07 22:36:00,
2013-09-07 18:41:00,78.1,63.1,29.98,ENE,73,0.6,1.1,60,0.00,OVC,,0.00,0.0,WeatherDisplay:10.37,2013-09-07 22:41:00,
2013-09-07 18:46:00,77.9,63.4,29.98,ENE,62,0.0,0.0,61,0.00,OVC,,0.00,0.0,WeatherDisplay:10.37,2013-09-07 22:46:00,
2013-09-07 18:51:00,77.6,63.1,29.98,ENE,63,0.9,2.3,61,0.00,OVC,,0.00,0.0,WeatherDisplay:10.37,2013-09-07 22:51:00,
2013-09-07 18:56:00,77.4,63.4,29.98,ENE,59,1.7,3.5,62,0.00,OVC,,0.00,0.0,WeatherDisplay:10.37,2013-09-07 22:56:00,
2013-09-07 19:01:00,77.2,63.6,29.98,ENE,59,0.6,2.3,63,0.00,OVC,,0.00,0.0,WeatherDisplay:10.37,2013-09-07 23:01:00,
2013-09-07 19:06:00,77.0,63.9,29.98,ENE,59,0.0,0.0,64,0.00,OVC,,0.00,0.0,WeatherDisplay:10.37,2013-09-07 23:06:00,
2013-09-07 19:11:00,76.8,63.7,29.98,ENE,59,0.0,0.0,64,0.00,OVC,,0.00,0.0,WeatherDisplay:10.37,2013-09-07 23:11:00,
2013-09-07 19:16:00,76.5,63.9,29.98,ENE,59,0.0,0.0,65,0.00,OVC,,0.00,0.0,WeatherDisplay:10.37,2013-09-07 23:16:00,
2013-09-07 19:21:00,76.2,64.0,29.98,ENE,59,0.8,2.3,66,0.00,OVC,,0.00,0.0,WeatherDisplay:10.37,2013-09-07 23:21:00,
2013-09-07 19:26:00,75.8,64.1,29.98,ENE,59,0.3,2.3,67,0.00,OVC,,0.00,0.0,WeatherDisplay:10.37,2013-09-07 23:26:00,
2013-09-07 19:31:00,75.6,64.3,29.98,ENE,59,0.0,0.0,68,0.00,OVC,,0.00,0.0,WeatherDisplay:10.37,2013-09-07 23:31:00,
2013-09-07 19:36:00,75.3,64.0,29.98,ENE,59,0.0,0.0,68,0.00,OVC,,0.00,0.0,WeatherDisplay:10.37,2013-09-07 23:36:00,
2013-09-07 19:41:00,75.0,65.0,29.98,ENE,59,0.0,0.0,71,0.00,OVC,,0.00,0.0,WeatherDisplay:10.37,2013-09-07 23:41:00,
2013-09-07 19:46:00,74.3,64.7,29.98,ENE,59,0.0,0.0,72,0.00,OVC,,0.00,0.0,WeatherDisplay:10.37,2013-09-07 23:46:00,
2013-09-07 19:51:00,73.6,64.4,29.98,ENE,59,0.0,0.0,73,0.00,OVC,,0.00,0.0,WeatherDisplay:10.37,2013-09-07 23:51:00,
2013-09-07 19:56:00,73.1,64.3,29.98,ENE,59,0.0,0.0,74,0.00,OVC,,0.00,0.0,WeatherDisplay:10.37,2013-09-07 23:56:00,
2013-09-07 20:01:00,72.6,64.2,29.99,ENE,59,0.0,0.0,75,0.00,OVC,,0.00,0.0,WeatherDisplay:10.37,2013-09-08 00:01:00,
2013-09-07 20:06:00,72.2,64.6,29.99,ENE,59,0.0,0.0,77,0.00,CLR,OVC,0.00,0.0,WeatherDisplay:10.37,2013-09-08 00:06:00,
2013-09-07 20:11:00,71.8,64.6,29.99,ENE,59,0.0,0.0,78,0.00,CLR,OVC,0.00,0.0,WeatherDisplay:10.37,2013-09-08 00:11:00,
2013-09-07 20:16:00,71.4,64.2,29.99,ENE,59,0.0,0.0,78,0.00,CLR,OVC,0.00,0.0,WeatherDisplay:10.37,2013-09-08 00:16:00,
2013-09-07 20:21:00,71.1,63.9,29.99,ENE,59,0.0,0.0,78,0.00,CLR,OVC,0.00,0.0,WeatherDisplay:10.37,2013-09-08 00:21:00,
2013-09-07 20:26:00,70.9,64.1,29.99,ENE,59,0.0,0.0,79,0.00,CLR,OVC,0.00,0.0,WeatherDisplay:10.37,2013-09-08 00:26:00,
2013-09-07 20:31:00,70.6,64.1,29.99,ENE,59,0.0,0.0,80,0.00,CLR,OVC,0.00,0.0,WeatherDisplay:10.37,2013-09-08 00:31:00,
2013-09-07 20:36:00,70.4,64.3,30.00,ENE,59,0.0,0.0,81,0.00,CLR,OVC,0.00,0.0,WeatherDisplay:10.37,2013-09-08 00:36:00,
2013-09-07 20:41:00,70.1,64.3,30.00,ENE,59,0.0,0.0,82,0.00,CLR,OVC,0.00,0.0,WeatherDisplay:10.37,2013-09-08 00:41:00,
2013-09-07 20:46:00,69.8,64.1,30.00,ENE,59,0.0,0.0,82,0.00,CLR,OVC,0.00,0.0,WeatherDisplay:10.37,2013-09-08 00:46:00,
2013-09-07 20:51:00,69.6,63.9,30.00,ENE,59,0.0,0.0,82,0.00,CLR,OVC,0.00,0.0,WeatherDisplay:10.37,2013-09-08 00:51:00,
2013-09-07 20:56:00,69.4,64.0,30.00,ENE,59,0.0,0.0,83,0.00,CLR,OVC,0.00,0.0,WeatherDisplay:10.37,2013-09-08 00:56:00,
2013-09-07 21:01:00,69.2,63.8,30.00,ENE,59,0.0,0.0,83,0.00,CLR,OVC,0.00,0.0,WeatherDisplay:10.37,2013-09-08 01:01:00,
2013-09-07 21:06:00,69.1,64.1,30.00,ENE,59,0.0,0.0,84,0.00,CLR,OVC,0.00,0.0,WeatherDisplay:10.37,2013-09-08 01:06:00,
2013-09-07 21:11:00,69.0,64.0,30.01,ENE,59,0.0,0.0,84,0.00,CLR,OVC,0.00,0.0,WeatherDisplay:10.37,2013-09-08 01:11:00,
2013-09-07 21:16:00,68.9,63.9,30.01,ENE,59,0.0,0.0,84,0.00,CLR,OVC,0.00,0.0,WeatherDisplay:10.37,2013-09-08 01:16:00,
2013-09-07 21:21:00,68.7,64.0,30.01,ENE,59,0.0,0.0,85,0.00,CLR,OVC,0.00,0.0,WeatherDisplay:10.37,2013-09-08 01:21:00,
2013-09-07 21:26:00,68.6,64.2,30.01,ENE,59,0.0,0.0,86,0.00,CLR,OVC,0.00,0.0,WeatherDisplay:10.37,2013-09-08 01:26:00,
2013-09-07 21:31:00,68.4,64.0,30.01,ENE,59,0.0,0.0,86,0.00,CLR,OVC,0.00,0.0,WeatherDisplay:10.37,2013-09-08 01:31:00,
2013-09-07 21:36:00,68.1,63.4,30.01,ENE,59,0.0,0.0,85,0.00,CLR,OVC,0.00,0.0,WeatherDisplay:10.37,2013-09-08 01:36:00,
2013-09-07 21:41:00,68.0,63.7,30.01,ENE,59,0.0,0.0,86,0.00,CLR,OVC,0.00,0.0,WeatherDisplay:10.37,2013-09-08 01:41:00,
2013-09-07 21:46:00,67.9,63.6,30.02,ENE,59,0.0,0.0,86,0.00,CLR,OVC,0.00,0.0,WeatherDisplay:10.37,2013-09-08 01:46:00,
2013-09-07 21:51:00,67.8,63.5,30.02,ENE,59,0.0,0.0,86,0.00,CLR,OVC,0.00,0.0,WeatherDisplay:10.37,2013-09-08 01:51:00,
2013-09-07 21:56:00,67.8,63.8,30.02,ENE,59,0.0,0.0,87,0.00,CLR,OVC,0.00,0.0,WeatherDisplay:10.37,2013-09-08 01:56:00,
2013-09-07 22:02:00,67.7,63.4,30.02,ENE,59,0.0,0.0,86,0.00,CLR,OVC,0.00,0.0,WeatherDisplay:10.37,2013-09-08 02:02:00,
2013-09-07 22:07:00,67.6,63.3,30.02,ENE,59,0.0,0.0,86,0.00,CLR,OVC,0.00,0.0,WeatherDisplay:10.37,2013-09-08 02:07:00,
2013-09-07 22:12:00,67.6,63.9,30.01,ENE,59,0.0,0.0,88,0.00,CLR,OVC,0.00,0.0,WeatherDisplay:10.37,2013-09-08 02:12:00,
2013-09-07 22:17:00,67.5,63.8,30.01,ENE,59,0.0,0.0,88,0.00,CLR,OVC,0.00,0.0,WeatherDisplay:10.37,2013-09-08 02:17:00,
2013-09-07 22:22:00,67.4,63.4,30.01,ENE,59,0.0,0.0,87,0.00,CLR,OVC,0.00,0.0,WeatherDisplay:10.37,2013-09-08 02:22:00,
2013-09-07 22:27:00,67.3,63.3,30.01,ENE,59,0.0,0.0,87,0.00,CLR,OVC,0.00,0.0,WeatherDisplay:10.37,2013-09-08 02:27:00,
2013-09-07 22:32:00,67.3,63.3,30.01,ENE,59,0.0,0.0,87,0.00,CLR,OVC,0.00,0.0,WeatherDisplay:10.37,2013-09-08 02:32:00,
2013-09-07 22:37:00,67.2,63.2,30.01,ENE,59,0.0,0.0,87,0.00,CLR,OVC,0.00,0.0,WeatherDisplay:10.37,2013-09-08 02:37:00,
2013-09-07 22:42:00,67.0,63.0,30.01,ENE,59,0.0,0.0,87,0.00,CLR,OVC,0.00,0.0,WeatherDisplay:10.37,2013-09-08 02:42:00,
2013-09-07 22:47:00,66.9,63.2,30.01,ENE,59,0.0,0.0,88,0.00,CLR,OVC,0.00,0.0,WeatherDisplay:10.37,2013-09-08 02:47:00,
2013-09-07 22:52:00,66.8,63.1,30.01,ENE,59,0.0,0.0,88,0.00,CLR,OVC,0.00,0.0,WeatherDisplay:10.37,2013-09-08 02:52:00,
2013-09-07 22:57:00,66.7,63.0,30.00,ENE,59,0.0,0.0,88,0.00,CLR,OVC,0.00,0.0,WeatherDisplay:10.37,2013-09-08 02:57:00,
2013-09-07 23:02:00,66.6,62.9,30.00,ENE,59,0.0,0.0,88,0.00,CLR,OVC,0.00,0.0,WeatherDisplay:10.37,2013-09-08 03:02:00,
2013-09-07 23:07:00,66.5,63.2,30.00,ENE,59,0.0,0.0,89,0.00,CLR,OVC,0.00,0.0,WeatherDisplay:10.37,2013-09-08 03:07:00,
2013-09-07 23:12:00,66.4,63.1,30.01,ENE,59,0.0,0.0,89,0.00,CLR,OVC,0.00,0.0,WeatherDisplay:10.37,2013-09-08 03:12:00,
2013-09-07 23:17:00,66.2,62.9,30.00,ENE,59,0.0,0.0,89,0.00,CLR,OVC,0.00,0.0,WeatherDisplay:10.37,2013-09-08 03:17:00,
2013-09-07 23:22:00,66.2,63.2,30.01,ENE,59,0.0,0.0,90,0.00,CLR,OVC,0.00,0.0,WeatherDisplay:10.37,2013-09-08 03:22:00,
2013-09-07 23:27:00,66.1,63.1,30.01,ENE,59,0.0,0.0,90,0.00,CLR,OVC,0.00,0.0,WeatherDisplay:10.37,2013-09-08 03:27:00,
2013-09-07 23:32:00,66.0,63.3,30.00,ENE,59,0.0,0.0,91,0.00,CLR,OVC,0.00,0.0,WeatherDisplay:10.37,2013-09-08 03:32:00,
2013-09-07 23:37:00,65.9,63.2,30.01,ENE,59,0.0,0.0,91,0.00,CLR,OVC,0.00,0.0,WeatherDisplay:10.37,2013-09-08 03:37:00,
2013-09-07 23:43:00,65.8,63.1,30.01,ENE,59,0.0,0.0,91,0.00,CLR,OVC,0.00,0.0,WeatherDisplay:10.37,2013-09-08 03:43:00,
2013-09-07 23:48:00,65.7,63.0,30.00,ENE,59,0.0,0.0,91,0.00,CLR,OVC,0.00,0.0,WeatherDisplay:10.37,2013-09-08 03:48:00,
2013-09-07 23:53:00,65.6,63.2,30.00,ENE,59,0.0,0.0,92,0.00,CLR,OVC,0.00,0.0,WeatherDisplay:10.37,2013-09-08 03:53:00,
2013-09-07 23:58:00,65.6,63.2,30.00,ENE,59,0.0,0.0,92,0.00,CLR,OVC,0.00,0.0,WeatherDisplay:10.37,2013-09-08 03:58:00,